Bennington, VT

5:01 PM EDT on September 22, 2017 (GMT -0400)
Morse State

Weather History for KDDH - November, 2012

Change the Weather History Date:

Saturday, November 3, 2012

  Actual Average Record
Temperature  
Mean Temperature 40 °F 42 °F  
Max Temperature 44 °F 52 °F 68 °F (2015)
Min Temperature 36 °F 32 °F 21 °F (2010)
Degree Days  
Heating Degree Days 25 23  
Month to date heating degree days 68 68  
Since 1 July heating degree days 678 889  
Cooling Degree Days 0 0  
Month to date cooling degree days 0 0  
Year to date cooling degree days 476 313  
Moisture  
Dew Point 31 °F    
Average Humidity 69    
Maximum Humidity 85    
Minimum Humidity 53    
Precipitation  
Precipitation 0.00 in 0.11 in 0.49 in (2003)
Month to date precipitation 0.09 0.34  
Year to date precipitation 28.95 35.14  
Sea Level Pressure  
Sea Level Pressure 29.78 in    
Wind  
Wind Speed 7 mph (West)    
Max Wind Speed 16 mph    
Max Gust Speed 20 mph    
Visibility 10 miles    
Events      
T = Trace of Precipitation, MM = Missing Value Source: NWS Daily Summary

Daily Weather History Graph

Daily Weather History Graph

Search for Another Location

Airport or City:

Trip Planner

Search our weather history database for the weather conditions in past years. The results will help you decide how hot, cold, wet, or windy it might be!

Date:

Astronomy

Nov. 03, 2012 Rise Set
Actual Time 7:30 AM EDT 5:42 PM EDT
Civil Twilight 7:00 AM EDT 6:11 PM EDT
Nautical Twilight 6:27 AM EDT 6:45 PM EDT
Astronomical Twilight 5:54 AM EDT 7:18 PM EDT
Moon 9:18 PM EDT (11/3) 11:35 AM EDT (11/3)
Length of Visible Light 11h 10m
Length of Day
10h 11m
Waning Gibbous, 80% of the Moon is Illuminated
Nov 3
Waning Gibbous
Nov 6
Last Quarter
Nov 13
New
Nov 20
First Quarter
Nov 28
Full

Hourly Weather History & Observations

Time (EDT) Temp. Windchill Dew Point Humidity Pressure Visibility Wind Dir Wind Speed Gust Speed Precip Events Conditions
12:32 AM 37.4 °F 33.8 °F 33.8 °F 87% 29.68 in 10.0 mi West 4.6 mph - N/A   Overcast
12:54 AM 37.9 °F 33.5 °F 34.0 °F 86% 29.70 in 10.0 mi West 5.8 mph - N/A   Overcast
1:12 AM 37.4 °F 34.9 °F 33.8 °F 87% 29.68 in 10.0 mi WSW 3.5 mph - N/A   Overcast
1:54 AM 37.9 °F 34.4 °F 34.0 °F 86% 29.70 in 10.0 mi West 4.6 mph - N/A   Overcast
2:54 AM 39.0 °F 35.7 °F 34.0 °F 82% 29.71 in 10.0 mi Variable 4.6 mph - N/A   Overcast
3:45 AM 39.2 °F 37.0 °F 33.8 °F 81% 29.70 in 10.0 mi SW 3.5 mph - N/A   Overcast
3:54 AM 39.0 °F 36.8 °F 33.1 °F 79% 29.71 in 10.0 mi WSW 3.5 mph - N/A   Overcast
4:10 AM 39.2 °F 37.0 °F 33.8 °F 81% 29.70 in 10.0 mi SW 3.5 mph - N/A   Overcast
4:54 AM 39.0 °F - 32.0 °F 76% 29.72 in 10.0 mi Calm Calm - N/A   Overcast
5:54 AM 37.9 °F 32.1 °F 32.0 °F 79% 29.73 in 10.0 mi West 8.1 mph - N/A   Overcast
6:54 AM 37.9 °F 32.1 °F 30.9 °F 76% 29.75 in 10.0 mi WSW 8.1 mph - N/A   Overcast
7:54 AM 37.9 °F 33.5 °F 30.9 °F 76% 29.77 in 10.0 mi WSW 5.8 mph - N/A   Overcast
8:54 AM 37.0 °F 34.5 °F 30.9 °F 79% 29.80 in 10.0 mi Variable 3.5 mph - N/A   Overcast
9:54 AM 37.9 °F - 30.9 °F 76% 29.81 in 10.0 mi Calm Calm - N/A   Overcast
10:54 AM 41.0 °F 35.2 °F 30.0 °F 65% 29.81 in 10.0 mi West 9.2 mph - N/A   Overcast
11:54 AM 41.0 °F 34.7 °F 28.9 °F 62% 29.81 in 10.0 mi WNW 10.4 mph - N/A   Overcast
12:54 PM 43.0 °F 36.8 °F 30.0 °F 60% 29.80 in 10.0 mi West 11.5 mph - N/A   Overcast
1:54 PM 43.0 °F 37.2 °F 30.9 °F 62% 29.80 in 10.0 mi West 10.4 mph 16.1 mph N/A   Overcast
2:54 PM 43.0 °F 37.2 °F 28.9 °F 58% 29.79 in 10.0 mi West 10.4 mph 18.4 mph N/A   Overcast
3:54 PM 43.0 °F 39.5 °F 28.0 °F 56% 29.81 in 10.0 mi NW 5.8 mph - N/A   Overcast
4:54 PM 43.0 °F 38.8 °F 28.0 °F 56% 29.83 in 10.0 mi WNW 6.9 mph - N/A   Overcast
5:54 PM 42.1 °F 36.6 °F 26.1 °F 53% 29.83 in 10.0 mi NW 9.2 mph - N/A   Overcast
6:54 PM 42.1 °F 37.1 °F 27.0 °F 55% 29.85 in 10.0 mi WNW 8.1 mph - N/A   Overcast
7:54 PM 41.0 °F 35.2 °F 28.0 °F 60% 29.86 in 10.0 mi WNW 9.2 mph - N/A   Overcast
8:54 PM 39.9 °F 34.5 °F 28.9 °F 65% 29.88 in 10.0 mi West 8.1 mph - N/A   Overcast
9:54 PM 39.0 °F 33.4 °F 28.9 °F 67% 29.89 in 10.0 mi West 8.1 mph - N/A   Overcast
10:54 PM 37.9 °F 34.4 °F 28.9 °F 70% 29.89 in 10.0 mi Variable 4.6 mph - N/A   Overcast
11:54 PM 37.0 °F 30.4 °F 28.9 °F 73% 29.89 in 10.0 mi West 9.2 mph - N/A   Overcast